GW5292 Weather Reports


time (UTC)temp
C
wind
direction
speed
KPH
gust
KPH
rain 1hr
cm
rain 24hr
cm
rain mn
cm
humidity
%
barometer
mb
20260509094503 10 135 0.0 3.2 0.00 0.00 0.00 86 1010.8
20260509093008 10 146 0.0 3.2 0.00 0.00 0.00 86 1010.8
20260509091514 10 146 0.0 3.2 0.00 0.00 0.00 86 1011.1
20260509090032 10 148 0.0 3.2 0.00 0.00 0.00 87 1011.2
20260509084504 10 148 0.0 3.2 0.00 0.00 0.00 86 1011.3
20260509083020 9 148 0.0 3.2 0.00 0.00 0.00 87 1011.3
20260509081512 10 148 0.0 3.2 0.00 0.00 0.00 86 1011.6
20260509080020 10 148 0.0 0.0 0.00 0.00 0.00 85 1011.6
20260509074522 10 148 0.0 0.0 0.00 0.00 0.00 85 1011.6
20260509073007 10 148 0.0 3.2 0.00 0.00 0.00 84 1011.6
20260509071511 10 111 0.0 0.0 0.00 0.00 0.00 83 1011.4
20260509070015 10 111 0.0 1.6 0.00 0.00 0.00 83 1011.4
20260509064520 10 97 0.0 3.2 0.00 0.00 0.00 83 1011.3
20260509063026 10 115 0.0 3.2 0.00 0.00 0.00 83 1011.4
20260509061508 10 114 0.0 0.0 0.00 0.00 0.00 82 1011.6
20260509060012 10 114 0.0 3.2 0.00 0.00 0.00 82 1011.9
20260509054516 10 109 0.0 0.0 0.00 0.00 0.00 81 1012.2
20260509053031 11 104 0.0 0.0 0.00 0.00 0.00 79 1012.3
20260509051526 11 104 0.0 0.0 0.00 0.00 0.00 78 1012.3
20260509050012 11 104 0.0 0.0 0.00 0.00 0.00 78 1012.3
20260509044518 11 104 0.0 3.2 0.00 0.00 0.00 77 1012.3
20260509043019 12 105 0.0 3.2 0.00 0.00 0.00 77 1012.1
20260509041503 12 33 1.6 3.2 0.00 0.00 0.00 76 1012.6
20260509040014 12 160 0.0 0.0 0.00 0.00 0.00 74 1013.0
20260509034513 12 160 0.0 3.2 0.00 0.00 0.00 75 1013.1
20260509033015 11 160 0.0 3.2 0.00 0.00 0.00 77 1013.0
20260509031532 11 160 0.0 0.0 0.00 0.00 0.00 76 1012.4
20260509030005 12 160 0.0 3.2 0.00 0.00 0.00 73 1012.6
20260509024510 12 160 0.0 3.2 0.00 0.00 0.00 72 1012.4
20260509023016 12 160 0.0 3.2 0.00 0.00 0.00 71 1012.5
20260509021533 12 160 0.0 0.0 0.00 0.00 0.00 69 1012.6
20260509020023 12 160 0.0 0.0 0.00 0.00 0.00 65 1012.5
20260509014505 13 160 0.0 0.0 0.00 0.00 0.00 63 1012.3
20260509013012 13 160 0.0 0.0 0.00 0.00 0.00 60 1012.3
20260509011514 13 160 0.0 0.0 0.00 0.00 0.00 59 1012.1
20260509010023 14 160 0.0 0.0 0.00 0.00 0.00 56 1011.9
20260509004526 15 160 0.0 3.2 0.00 0.00 0.00 54 1011.6
20260509003011 15 160 0.0 3.2 0.00 0.00 0.00 52 1011.5
20260509001516 16 160 0.0 3.2 0.00 0.00 0.00 51 1011.2
20260509000018 16 146 0.0 3.2 0.00 0.00 0.00 50 1011.1
20260508234525 16 45 0.0 3.2 0.00 0.00 0.00 49 1010.9
20260508233028 16 207 3.2 4.8 0.00 0.00 0.00 49 1011.0
20260508231510 16 206 0.0 3.2 0.00 0.00 0.00 50 1010.9
20260508230013 16 206 0.0 3.2 0.00 0.00 0.00 49 1010.6
20260508224519 16 203 0.0 3.2 0.00 0.00 0.00 47 1010.6
20260508223040 16 215 1.6 4.8 0.00 0.00 0.00 47 1010.5
20260508221504 17 221 3.2 6.4 0.00 0.00 0.00 46 1010.7
20260508220004 16 209 1.6 6.4 0.00 0.00 0.00 48 1010.6
20260508214503 17 208 1.6 4.8 0.00 0.00 0.00 46 1010.7
20260508213010 17 193 1.6 6.4 0.00 0.00 0.00 46 1010.7
20260508211503 17 196 1.6 9.7 0.00 0.00 0.00 46 1010.8
20260508210004 17 160 1.6 9.7 0.00 0.00 0.00 44 1010.6
20260508204504 17 170 4.8 9.7 0.00 0.00 0.00 45 1010.6
20260508203003 17 166 4.8 12.9 0.00 0.00 0.00 45 1010.8
20260508201506 17 98 3.2 16.1 0.00 0.00 0.00 42 1011.0
20260508200009 18 204 6.4 12.9 0.00 0.00 0.00 43 1011.2
20260508194503 17 67 1.6 6.4 0.00 0.00 0.00 45 1011.3
20260508193003 16 192 6.4 12.9 0.00 0.00 0.00 45 1011.4
20260508191503 17 211 3.2 11.3 0.00 0.00 0.00 43 1011.5
20260508190007 17 121 3.2 16.1 0.00 0.00 0.00 45 1011.6
20260508184516 17 170 6.4 16.1 0.00 0.00 0.00 44 1011.5
20260508183009 16 220 6.4 16.1 0.00 0.00 0.00 43 1011.4
20260508181513 16 213 4.8 17.7 0.00 0.00 0.00 44 1011.5
20260508180005 17 188 3.2 19.3 0.00 0.00 0.00 43 1011.4
20260508174508 16 215 4.8 17.7 0.00 0.00 0.00 47 1011.4
20260508173007 16 238 6.4 17.7 0.00 0.00 0.00 42 1011.7
20260508171511 17 59 6.4 12.9 0.00 0.00 0.00 46 1011.9
20260508170009 16 144 4.8 16.1 0.00 0.00 0.00 46 1012.2
20260508164505 16 186 11.3 19.3 0.00 0.00 0.00 47 1012.5
20260508163012 16 203 6.4 20.9 0.00 0.00 0.00 44 1012.5
20260508161512 16 189 11.3 20.9 0.00 0.00 0.00 45 1012.6
20260508160019 16 223 8.0 16.1 0.00 0.00 0.00 47 1012.7
20260508154511 15 209 4.8 11.3 0.00 0.00 0.00 49 1012.8
20260508153007 15 198 4.8 11.3 0.00 0.00 0.00 47 1013.0
20260508151512 14 213 4.8 8.0 0.00 0.00 0.00 51 1013.3
20260508150034 13 225 8.0 14.5 0.00 0.00 0.00 54 1013.5
20260508144512 12 212 6.4 9.7 0.00 0.00 0.00 57 1013.8
20260508143016 12 217 4.8 9.7 0.00 0.00 0.00 58 1013.9
20260508141511 11 192 3.2 9.7 0.00 0.00 0.00 59 1014.0
20260508140024 11 202 4.8 9.7 0.00 0.00 0.00 58 1013.8
20260508134513 11 215 1.6 6.4 0.00 0.00 0.00 63 1014.1
20260508133014 11 213 1.6 4.8 0.00 0.00 0.00 65 1014.1
20260508131510 11 225 1.6 6.4 0.00 0.00 0.00 66 1014.2
20260508130013 10 215 1.6 4.8 0.00 0.00 0.00 70 1014.0
20260508124518 10 209 1.6 4.8 0.00 0.00 0.00 72 1014.0
20260508123020 10 203 1.6 4.8 0.00 0.00 0.00 72 1013.9
20260508121506 9 209 1.6 3.2 0.00 0.00 0.00 77 1013.9
20260508120011 8 207 1.6 3.2 0.00 0.00 0.00 83 1014.0
20260508114517 7 224 1.6 3.2 0.00 0.00 0.00 88 1014.0
20260508113022 6 253 0.0 3.2 0.00 0.00 0.00 93 1013.9
20260508111522 5 253 0.0 0.0 0.00 0.00 0.00 93 1013.8
20260508110009 4 253 0.0 0.0 0.00 0.00 0.00 93 1013.7
20260508104516 4 253 0.0 0.0 0.00 0.00 0.00 93 1013.4
20260508103021 3 253 0.0 0.0 0.00 0.00 0.00 92 1013.3
20260508101459 3 253 0.0 0.0 0.00 0.00 0.00 91 1013.4
20260508095959 3 253 0.0 0.0 0.00 0.00 0.00 91 1013.2